Weather History for Melbourne, FL

Change the Weather History Date:

Sunday, August 17, 2014

  Actual Average Record
Temperature  
Mean Temperature 82 °F 82 °F  
Max Temperature 89 °F 91 °F 95 °F (1958)
Min Temperature 74 °F 73 °F 67 °F (1938)
Degree Days  
Heating Degree Days 0 0  
Month to date heating degree days 0 0  
Since 1 June heating degree days 0 0  
Since 1 July heating degree days 0 0  
Cooling Degree Days 17 17  
Month to date cooling degree days 314 289  
Year to date cooling degree days 2218 1993  
Since 1 June cooling degree days 1325 1267  
Growing Degree Days 30 (Base 50)    
Moisture  
Dew Point 75 °F    
Average Humidity 84    
Maximum Humidity 100    
Minimum Humidity 68    
Precipitation  
Precipitation 0.00 in 0.25 in 3.02 in (1941)
Month to date precipitation 3.61 4.21  
Year to date precipitation 37.09 30.38  
Sea Level Pressure  
Sea Level Pressure 30.08 in    
Wind  
Wind Speed 7 mph (South)    
Max Wind Speed 14 mph    
Max Gust Speed 18 mph    
Visibility 10 miles    
Events Thunderstorm    
T = Trace of Precipitation, MM = Missing Value Source: NWS Daily Summary

Daily Weather History Graph

Daily Weather History Graph

Search for Another Location

Airport:

Trip Planner

Search our weather history database for the weather conditions in past years. The results will help you decide how hot, cold, wet, or windy it might be!

Date:

Astronomy

Aug. 17, 2014 Rise Set
Actual Time 6:53 AM EDT 7:59 PM EDT
Civil Twilight 6:29 AM EDT 8:23 PM EDT
Nautical Twilight 6:00 AM EDT 8:52 PM EDT
Astronomical Twilight 5:30 AM EDT 9:22 PM EDT
Moon 12:20 AM EDT (8/17) 1:58 PM EDT (8/17)
Length of Visible Light 13h 54m
Length of Day
13h 05m
Waning Gibbous, 48% of the Moon is Illuminated
Aug 17
Waning Gibbous
Aug 25
New
Sep 2
First Quarter
Sep 8
Full
Sep 15
Last Quarter

Hourly Weather History & Observations

Time (EDT) Temp. Heat Index Dew Point Humidity Pressure Visibility Wind Dir Wind Speed Gust Speed Precip Events Conditions
12:53 AM 75.0 °F - 73.0 °F 94% 30.09 in 10.0 mi WSW 4.6 mph - N/A   Clear
1:53 AM 75.0 °F - 73.0 °F 94% 30.08 in 10.0 mi SSW 5.8 mph - N/A   Clear
3:53 AM 75.0 °F - 73.0 °F 94% 30.05 in 10.0 mi SSW 6.9 mph - N/A   Clear
4:53 AM 75.0 °F - 73.0 °F 94% 30.06 in 10.0 mi SSW 5.8 mph - N/A   Clear
5:53 AM 73.9 °F - 73.0 °F 97% 30.07 in 10.0 mi SW 4.6 mph - N/A   Clear
6:53 AM 73.9 °F - 73.0 °F 97% 30.09 in 10.0 mi WSW 3.5 mph - N/A   Clear
7:53 AM 75.9 °F - 73.0 °F 91% 30.11 in 10.0 mi WSW 5.8 mph - N/A   Clear
8:53 AM 80.1 °F 84.5 °F 73.9 °F 81% 30.12 in 10.0 mi WSW 3.5 mph - N/A   Clear
9:53 AM 84.0 °F 92.6 °F 75.9 °F 76% 30.12 in 10.0 mi West 5.8 mph - N/A   Clear
10:53 AM 86.0 °F 96.0 °F 75.9 °F 72% 30.13 in 10.0 mi WNW 3.5 mph - N/A   Scattered Clouds
11:53 AM 87.1 °F 96.3 °F 75.0 °F 67% 30.12 in 10.0 mi WSW 3.5 mph - N/A   Mostly Cloudy
12:53 PM 84.0 °F 92.6 °F 75.9 °F 76% 30.12 in 10.0 mi East 9.2 mph - N/A   Mostly Cloudy
1:53 PM 88.0 °F 100.2 °F 77.0 °F 70% 30.10 in 10.0 mi ENE 6.9 mph - N/A   Scattered Clouds
2:53 PM 87.1 °F 98.8 °F 77.0 °F 72% 30.07 in 10.0 mi East 9.2 mph - N/A   Scattered Clouds
3:53 PM 88.0 °F 97.5 °F 75.0 °F 65% 30.05 in 10.0 mi East 12.7 mph - N/A   Scattered Clouds
4:53 PM 87.1 °F 96.3 °F 75.0 °F 67% 30.05 in 10.0 mi ESE 11.5 mph - N/A   Clear
6:53 PM 84.0 °F 92.6 °F 75.9 °F 76% 30.04 in 10.0 mi SE 12.7 mph - N/A   Clear
7:38 PM 84.0 °F 92.6 °F 75.9 °F 76% 30.04 in 10.0 mi SE 11.5 mph - N/A Thunderstorm Clear
7:53 PM 84.0 °F 92.6 °F 75.9 °F 76% 30.04 in 10.0 mi SE 8.1 mph - N/A Thunderstorm Clear
8:13 PM 84.0 °F 93.7 °F 77.0 °F 79% 30.05 in 10.0 mi SSE 9.2 mph - N/A   Scattered Clouds
8:53 PM 84.0 °F 93.7 °F 77.0 °F 79% 30.06 in 10.0 mi SSE 5.8 mph - N/A Thunderstorm Mostly Cloudy
9:09 PM 82.9 °F 91.8 °F 77.0 °F 82% 30.06 in 10.0 mi SSE 4.6 mph - N/A   Partly Cloudy
9:53 PM 82.0 °F 90.2 °F 77.0 °F 85% 30.08 in 10.0 mi South 5.8 mph - N/A   Clear
10:53 PM 81.0 °F 87.9 °F 77.0 °F 88% 30.09 in 10.0 mi South 4.6 mph - N/A   Clear
11:53 PM 81.0 °F 87.9 °F 77.0 °F 88% 30.09 in 10.0 mi SSW 5.8 mph - N/A   Clear